Pittsfield, IL

12:48 PM CDT on July 21, 2017 (GMT -0500)
Pittsfield Penstone Municipal

Weather History for KPPQ - May, 2013

Change the Weather History Date:

Tuesday, May 14, 2013

  Actual Average (KUIN) Record (KUIN)
Temperature  
Mean Temperature 73 °F -  
Max Temperature 90 °F 72 °F 94 °F (1915)
Min Temperature 56 °F 51 °F 35 °F (1920)
Cooling Degree Days 8    
Growing Degree Days 23 (Base 50)    
Moisture  
Dew Point 51 °F    
Average Humidity 47    
Maximum Humidity 72    
Minimum Humidity 27    
Precipitation  
Precipitation 0.00 in - - ()
Sea Level Pressure  
Sea Level Pressure 29.86 in    
Wind  
Wind Speed 9 mph (SSW)    
Max Wind Speed 20 mph    
Max Gust Speed 25 mph    
Visibility 10 miles    
Events      
Averages and records for this station are not official NWS values.
T = Trace of Precipitation, MM = Missing Value Source: NWS Daily Summary

Daily Weather History Graph

Daily Weather History Graph

Search for Another Location

Airport or City:

Trip Planner

Search our weather history database for the weather conditions in past years. The results will help you decide how hot, cold, wet, or windy it might be!

Date:

Astronomy

May. 14, 2013 Rise Set
Actual Time 5:49 AM CDT 8:10 PM CDT
Civil Twilight 5:19 AM CDT 8:40 PM CDT
Nautical Twilight 4:41 AM CDT 9:18 PM CDT
Astronomical Twilight 4:00 AM CDT 9:59 PM CDT
Moon 9:29 AM CDT (5/14) 11:57 PM CDT (5/14)
Length of Visible Light 15h 21m
Length of Day
14h 20m
Waxing Crescent, 19% of the Moon is Illuminated
May 14
Waxing Crescent
May 17
First Quarter
May 24
Full
May 31
Last Quarter
Jun 8
New

Hourly Weather History & Observations

Time (CDT) Temp. Heat Index Dew Point Humidity Pressure Visibility Wind Dir Wind Speed Gust Speed Precip Events Conditions
12:15 AM 58.1 °F - 44.4 °F 60% 30.00 in 10.0 mi SE 5.8 mph - N/A   Clear
12:35 AM 57.7 °F - 44.6 °F 62% 30.00 in 10.0 mi SSE 6.9 mph - N/A   Clear
12:55 AM 58.1 °F - 44.6 °F 61% 29.99 in 10.0 mi SSE 6.9 mph - N/A   Clear
1:15 AM 57.7 °F - 44.6 °F 62% 29.97 in 10.0 mi SSE 6.9 mph - N/A   Clear
1:35 AM 57.4 °F - 44.8 °F 63% 29.96 in 10.0 mi SSE 6.9 mph - N/A   Clear
1:55 AM 56.3 °F - 45.5 °F 67% 29.96 in 10.0 mi South 5.8 mph - N/A   Clear
2:15 AM 56.5 °F - 45.5 °F 67% 29.95 in 7.0 mi South 6.9 mph - N/A   Clear
2:35 AM 57.9 °F - 45.7 °F 64% 29.94 in 10.0 mi South 6.9 mph - N/A   Clear
2:55 AM 58.3 °F - 46.4 °F 65% 29.94 in 10.0 mi Calm Calm - N/A   Clear
3:15 AM 59.0 °F - 46.8 °F 64% 29.93 in 10.0 mi South 8.1 mph - N/A   Clear
3:35 AM 59.2 °F - 47.3 °F 65% 29.93 in 10.0 mi South 9.2 mph - N/A   Clear
3:55 AM 59.0 °F - 47.5 °F 66% 29.93 in 10.0 mi South 10.4 mph - N/A   Clear
4:15 AM 59.0 °F - 47.7 °F 66% 29.92 in 10.0 mi South 5.8 mph - N/A   Clear
4:35 AM 58.5 °F - 47.8 °F 68% 29.91 in 10.0 mi South 9.2 mph - N/A   Clear
4:55 AM 58.1 °F - 48.0 °F 69% 29.91 in 10.0 mi South 9.2 mph - N/A   Clear
5:15 AM 57.9 °F - 48.2 °F 70% 29.91 in 10.0 mi South 5.8 mph - N/A   Clear
5:35 AM 57.6 °F - 48.2 °F 71% 29.91 in 10.0 mi South 6.9 mph - N/A   Clear
5:55 AM 57.6 °F - 48.6 °F 72% 29.91 in 10.0 mi South 6.9 mph - N/A   Clear
6:15 AM 58.1 °F - 49.1 °F 72% 29.90 in 10.0 mi South 8.1 mph - N/A   Clear
6:35 AM 59.2 °F - 49.3 °F 70% 29.90 in 10.0 mi South 9.2 mph - N/A   Clear
6:55 AM 59.9 °F - 50.0 °F 70% 29.90 in 10.0 mi South 8.1 mph - N/A   Clear
7:15 AM 60.8 °F - 50.5 °F 69% 29.90 in 10.0 mi South 8.1 mph - N/A   Clear
7:35 AM 61.9 °F - 51.4 °F 69% 29.89 in 10.0 mi South 6.9 mph - N/A   Clear
7:55 AM 63.9 °F - 52.2 °F 66% 29.88 in 10.0 mi South 9.2 mph - N/A   Clear
8:15 AM 65.3 °F - 53.1 °F 65% 29.88 in 10.0 mi SSW 8.1 mph - N/A   Clear
8:35 AM 67.8 °F - 53.6 °F 60% 29.88 in 10.0 mi SSW 9.2 mph - N/A   Clear
8:55 AM 69.1 °F - 53.8 °F 58% 29.88 in 10.0 mi SSW 9.2 mph - N/A   Clear
9:15 AM 71.4 °F - 54.1 °F 54% 29.88 in 10.0 mi SW 8.1 mph - N/A   Clear
9:35 AM 72.9 °F - 54.1 °F 52% 29.87 in 10.0 mi WSW 12.7 mph 18.4 mph N/A   Clear
9:55 AM 74.5 °F - 54.9 °F 50% 29.87 in 10.0 mi SW 10.4 mph 16.1 mph N/A   Clear
10:15 AM 75.9 °F - 55.6 °F 49% 29.87 in 10.0 mi SW 10.4 mph - N/A   Clear
10:35 AM 77.2 °F - 55.2 °F 47% 29.87 in 10.0 mi SW 13.8 mph 18.4 mph N/A   Clear
10:55 AM 78.3 °F - 55.0 °F 45% 29.87 in 10.0 mi SW 10.4 mph - N/A   Clear
11:15 AM 79.3 °F - 56.5 °F 45% 29.87 in 10.0 mi SW 12.7 mph 18.4 mph N/A   Clear
11:35 AM 79.9 °F - 56.5 °F 45% 29.87 in 10.0 mi SSW 13.8 mph 17.3 mph N/A   Clear
11:55 AM 81.1 °F 81.0 °F 55.8 °F 42% 29.87 in 10.0 mi SW 13.8 mph - N/A   Clear
12:15 PM 82.6 °F 82.0 °F 56.3 °F 40% 29.87 in 10.0 mi SW 13.8 mph - N/A   Clear
12:35 PM 83.5 °F 82.5 °F 55.6 °F 38% 29.86 in 10.0 mi WSW 12.7 mph - N/A   Clear
12:55 PM 84.4 °F 83.4 °F 55.9 °F 38% 29.86 in 10.0 mi SW 10.4 mph - N/A   Clear
1:15 PM 85.3 °F 84.1 °F 56.1 °F 37% 29.85 in 10.0 mi SW 12.7 mph - N/A   Clear
1:35 PM 85.8 °F 84.5 °F 55.9 °F 36% 29.85 in 10.0 mi SSW 13.8 mph - N/A   Clear
1:55 PM 86.2 °F 84.7 °F 55.8 °F 35% 29.85 in 10.0 mi SSW 11.5 mph - N/A   Clear
2:15 PM 86.9 °F 85.5 °F 56.5 °F 35% 29.84 in 10.0 mi SW 13.8 mph 19.6 mph N/A   Clear
2:35 PM 87.6 °F 86.1 °F 55.9 °F 34% 29.83 in 10.0 mi SW 10.4 mph 18.4 mph N/A   Clear
2:55 PM 88.5 °F 87.1 °F 56.8 °F 34% 29.83 in 10.0 mi SSW 15.0 mph 19.6 mph N/A   Clear
3:15 PM 89.1 °F 87.3 °F 55.8 °F 32% 29.83 in 10.0 mi SSW 15.0 mph 19.6 mph N/A   Clear
3:35 PM 89.2 °F 87.3 °F 55.2 °F 31% 29.82 in 10.0 mi SSW 13.8 mph 19.6 mph N/A   Clear
3:55 PM 89.6 °F 87.5 °F 54.3 °F 30% 29.82 in 10.0 mi SW 13.8 mph 21.9 mph N/A   Clear
4:15 PM 89.6 °F 87.5 °F 54.3 °F 30% 29.81 in 10.0 mi SW 15.0 mph - N/A   Clear
4:35 PM 90.1 °F 87.9 °F 53.8 °F 29% 29.80 in 10.0 mi SW 15.0 mph - N/A   Clear
4:55 PM 90.3 °F 88.3 °F 54.9 °F 30% 29.80 in 10.0 mi SW 15.0 mph 21.9 mph N/A   Clear
5:15 PM 89.8 °F 87.3 °F 53.1 °F 28% 29.80 in 10.0 mi SW 18.4 mph 24.2 mph N/A   Clear
5:35 PM 89.6 °F 87.3 °F 53.2 °F 29% 29.79 in 10.0 mi SW 17.3 mph 21.9 mph N/A   Clear
5:55 PM 89.6 °F - 51.8 °F 27% 29.79 in 10.0 mi SW 17.3 mph 25.3 mph N/A   Clear
6:15 PM 89.4 °F - 51.1 °F 27% 29.78 in 10.0 mi SW 12.7 mph 18.4 mph N/A   Clear
6:35 PM 88.7 °F - 50.9 °F 27% 29.78 in 10.0 mi SW 19.6 mph 24.2 mph N/A   Clear
6:55 PM 88.2 °F - 50.2 °F 27% 29.78 in 10.0 mi SW 15.0 mph 20.7 mph N/A   Clear
7:15 PM 87.4 °F - 50.2 °F 28% 29.78 in 10.0 mi SW 10.4 mph - N/A   Clear
7:35 PM 86.4 °F - 51.3 °F 30% 29.78 in 10.0 mi SW 9.2 mph 17.3 mph N/A   Clear
7:55 PM 84.6 °F - 51.6 °F 32% 29.79 in 10.0 mi SW 8.1 mph - N/A   Clear
8:15 PM 83.3 °F - 51.4 °F 33% 29.79 in 10.0 mi WSW 10.4 mph - N/A   Clear
8:35 PM 84.2 °F - 49.5 °F 30% 29.79 in 10.0 mi SW 12.7 mph 19.6 mph N/A   Clear
8:55 PM 82.0 °F - 50.2 °F 33% 29.80 in 10.0 mi SW 8.1 mph - N/A   Clear
9:15 PM 80.4 °F - 50.5 °F 35% 29.80 in 10.0 mi SW 9.2 mph - N/A   Clear
9:35 PM 80.4 °F - 49.8 °F 34% 29.81 in 10.0 mi SW 10.4 mph - N/A   Clear
9:55 PM 80.2 °F - 50.0 °F 35% 29.82 in 10.0 mi SW 9.2 mph - N/A   Clear
10:15 PM 78.6 °F - 50.9 °F 38% 29.83 in 10.0 mi SW 10.4 mph - N/A   Clear
10:35 PM 78.6 °F - 50.9 °F 38% 29.83 in 10.0 mi SW 10.4 mph - N/A   Clear
10:55 PM 79.7 °F - 50.2 °F 36% 29.83 in 10.0 mi SW 10.4 mph 18.4 mph N/A   Clear
11:15 PM 79.7 °F - 49.8 °F 35% 29.83 in 10.0 mi SW 17.3 mph 24.2 mph N/A   Clear
11:35 PM 79.5 °F - 49.8 °F 35% 29.83 in 10.0 mi SW 18.4 mph 24.2 mph N/A   Clear
11:55 PM 79.7 °F - 49.1 °F 34% 29.83 in 10.0 mi SW 17.3 mph 24.2 mph N/A   Clear